カタログに戻る

FENGYUN 1C DEB

LostPO
NORAD 31494·DEBRIS·🇨🇳 China

打ち上げ May 10, 1999 から Taiyuan Satellite Launch Center

Loading…

次のパス (今後24時間)

TLE

古いSource: Space-Track

元期: Jul 5, 2025, 07:24 UTC

1 31494U 99025BWH 25186.30857085  .00009570  00000-0  17409-2 0  9998
2 31494  99.5891 221.8447 0016131 259.0233 100.9151 14.66298255588060

AllMySatでFENGYUN 1C DEBをリアルタイム追跡

Download on the App Store